User: anonymous   Login
Location: Vancouver
(49.2500°N, 123.1330°W)
Time: 23:14:23
(UTC-08:00)
Language:

Cosmos 1340 Rocket - Orbit

View from above orbital plane
View from above orbital plane
View from above satellite
View from above satellite

Ground track
Ground track

The orbit data is extracted from the following two-line orbital elements,

1 13068U 82013B   14351.51142189  .00002857  00000-0  19866-3 0  5774
2 13068 081.2024 183.3445 0023849 087.1835 273.2116 15.04990704786106
Epoch (UTC): 17 December 2014 12:16:26
Eccentricity: 0.0023849
inclination: 81.2024°
perigee height: 535 km
apogee height: 568 km
right ascension of ascending node: 183.3445°
argument of perigee: 87.1835°
revolutions per day: 15.04990704
mean anomaly at epoch: 273.2116°
orbit number at epoch: 78610

The dashed part of the orbit path shows where the satellite is in the earth's shadow,  

DLR